#timestamp,LO_Frequency,Hit,StdDev 
1617145215.5,286046999.0,N
1617145235.4,286047000.6,N
1617145255.2,286047000.0,N
1617145275.0,286047001.1,N
1617145276.0,286047001.1,N
1617145295.8,286046998.9,N
1617145315.6,286046996.5,N
1617145335.5,286046999.4,N
1617145355.3,286046999.6,N
1617145375.1,286046997.1,N
1617145395.9,286046998.6,N
1617145415.7,286047001.2,N
1617145435.5,286046998.3,N
1617145455.4,286046999.2,N
1617145475.2,286046999.2,N
1617145495.1,286047000.5,N
1617145496.0,286047000.5,N
1617145515.8,286047001.1,N
1617145535.6,286047000.2,N
1617145555.5,286047000.4,N
1617145575.3,286046998.1,N
1617145595.2,286047002.8,N
1617145615.9,286047000.5,N
1617145635.7,286046999.4,N
1617145655.6,286047000.2,N
1617145675.4,286046998.1,N
1617145695.2,286047002.3,N
1617145715.1,286047000.7,N
1617145716.0,286047000.7,N
1617145735.8,286046999.6,N
1617145755.7,286046999.6,N
1617145775.5,286046999.5,N
1617145795.3,286046996.7,N
1617145815.2,286046999.0,N
1617145835.0,286046998.5,N
1617145835.9,286046998.5,N
1617145855.7,286047002.4,N
1617145875.6,286047000.8,N
1617145895.4,286046996.5,N
1617145915.3,286046997.2,N
1617145935.1,286046997.4,N
1617145936.0,286046997.4,N
1617145955.8,286046998.0,N
1617145975.7,286046997.8,N
1617145995.5,286046996.5,N
1617146015.3,286046997.9,N
1617146035.2,286046996.9,N
1617146055.0,286046997.8,N
1617146055.9,286046997.8,N
1617146075.8,286046995.4,N
1617146095.6,286046994.9,N
1617146115.4,286046997.6,N
1617146135.3,286046997.4,N
1617146155.1,286046997.8,N
1617146175.8,286046997.8,N
1617146195.7,286046998.0,N
1617146215.5,286046995.8,N
1617146235.4,286046993.6,Y
1617146255.2,286046996.8,P
1617146275.0,286046997.9,P
1617146275.9,286046997.9,P
1617146295.8,286046997.8,Y
1617146315.6,286047000.8,P
1617146335.5,286046998.6,N
1617146355.3,286047001.1,N
1617146375.1,286046998.3,N
1617146395.9,286047000.4,N
1617146415.7,286047002.4,N
1617146435.5,286047000.7,N
1617146455.4,286047000.0,N
1617146475.2,286047002.1,N
1617146495.1,286047001.8,N
1617146496.0,286047001.8,N
1617146515.8,286047006.0,Y
1617146535.6,286047002.3,P
1617146555.5,286047002.7,N
1617146575.3,286047001.0,N
1617146595.1,286047000.1,N
1617146615.9,286047000.7,N
1617146635.7,286047000.8,N
1617146655.6,286047001.1,N
1617146675.4,286047000.9,N
1617146695.2,286047000.7,N
1617146715.1,286046998.4,N
1617146716.0,286046998.4,N
1617146735.8,286047000.3,N
1617146755.6,286047002.2,N
1617146775.5,286047002.6,N
1617146795.3,286047000.9,N
1617146815.2,286046998.3,N
1617146835.9,286046998.9,N
1617146855.7,286046998.2,N
1617146875.6,286046998.7,N
1617146895.4,286046998.7,N
1617146915.2,286047000.1,N
1617146935.1,286047000.2,N
1617146936.0,286047000.2,N
1617146955.8,286047000.6,N
1617146975.7,286046998.5,N
1617146995.5,286046999.3,N
1617147015.3,286046996.5,N
1617147035.2,286046999.2,N
1617147055.0,286046997.0,N
1617147055.9,286046997.0,N
1617147075.7,286046997.8,N
1617147095.6,286046997.5,N
1617147115.4,286046996.5,N
1617147135.3,286046997.3,N
1617147155.1,286046997.7,N
1617147156.0,286046997.7,N
1617147175.8,286046997.6,N
1617147195.7,286046996.7,N
1617147215.5,286046996.7,N
1617147235.3,286046997.4,N
1617147255.2,286046997.8,N
1617147275.0,286046997.0,N
1617147275.9,286046997.0,N
1617147295.8,286046999.2,N
1617147315.6,286046999.5,N
1617147335.4,286046999.4,N
1617147355.3,286046996.6,N
1617147375.1,286046998.8,N
1617147395.8,286046999.5,N
1617147415.7,286046997.0,N
1617147435.5,286046999.3,N
1617147455.4,286046999.3,N
1617147475.2,286046999.0,N
1617147495.0,286047000.3,N
1617147495.9,286047000.3,N
1617147515.8,286047001.2,N
1617147535.6,286046999.3,N
1617147555.4,286047000.9,N
1617147575.3,286047000.8,N
1617147595.1,286046998.8,N
1617147615.9,286046998.4,N
1617147635.7,286046996.5,N
1617147655.5,286046996.7,N
1617147675.4,286046996.5,N
1617147695.2,286046996.6,N
1617147715.0,286046997.0,N
1617147715.9,286046997.0,N
1617147735.8,286046997.0,N
1617147755.6,286046998.9,N
1617147775.5,286046996.5,N
1617147795.3,286046996.9,N
1617147815.1,286046998.6,N
1617147835.9,286046998.6,N
1617147855.7,286047000.7,N
1617147875.5,286047000.8,N
1617147895.4,286047000.3,N
1617147915.2,286047000.6,N
1617147935.1,286046998.6,N
1617147936.0,286046998.6,N
1617147955.8,286047000.0,N
1617147975.6,286047001.2,N
1617147995.5,286047000.9,N
1617148015.3,286047000.9,N
1617148035.1,286046999.8,N
1617148055.9,286047002.8,N
1617148075.7,286046999.9,N
1617148095.6,286047001.1,N
1617148115.4,286047002.6,N
1617148135.2,286047000.0,N
1617148155.1,286047000.9,N
1617148156.0,286047000.9,N
1617148175.8,286047000.4,N
1617148195.6,286046999.7,N
1617148215.5,286046999.9,N
1617148235.3,286046998.1,N
1617148255.2,286046999.0,N
1617148275.9,286046998.9,N
1617148295.7,286047001.0,N
1617148315.6,286047000.0,N
1617148335.4,286047000.4,N
1617148355.2,286047000.8,N
1617148375.1,286047000.2,N
1617148376.0,286047000.2,N
1617148395.8,286047000.9,N
1617148415.7,286047000.8,N
1617148435.5,286046998.4,N
1617148455.3,286047001.1,N
1617148475.2,286046998.4,N
1617148495.0,286046998.5,N
1617148495.9,286046998.5,N
1617148515.8,286046998.6,N
1617148535.6,286046998.6,N
1617148555.4,286047000.0,N
1617148575.3,286047000.0,N
1617148595.1,286047002.8,N
1617148615.8,286047000.1,N
1617148635.7,286047000.2,N
1617148655.5,286047000.0,N
1617148675.4,286047000.4,N
1617148695.2,286047000.4,N
1617148715.0,286046999.9,N
1617148715.9,286046999.9,N
1617148735.8,286047000.4,N
1617148755.6,286046998.5,N
1617148775.5,286047000.5,N
1617148795.3,286047001.2,N
